Location: Lourdes
(43.1000°N, 0.0500°W)
Time: 12:59:40
(UTC+00:00)

CRYOSAT 2 - Pass Details

Date: 30 November 2020
Orbit: 714 x 724 km, 92.0° (Epoch: 25 January)

Event Time Altitude Azimuth Distance (km) Brightness Sun altitude
Rises 17:13:31 0° 4° (N) 3,147 7.4 -8.6°
Reaches altitude 10° 17:15:49 10° 4° (N) 2,222 6.7 -8.9°
Maximum altitude 17:20:45 88° 276° (W) 731 4.4 -9.8°
Drops below altitude 10° 17:25:39 10° 187° (S) 2,209 7.3 -10.6°
Sets 17:27:55 0° 187° (S) 3,125 8.1 -11.0°
